Aeroporto :
LOGIN :

Iscrizione | Disclaimer

   EN    FR    IT 

 










Sommario :    VFR   VFR Marginale   IFR   IFR Intensivo   IFR Molto Intensivo
Visibilità : 
Base nubi : 
>= 8 km
>= 3000ft
5 / 8 km
1000 / 3000 ft
1500m / 5 km
500 / 1000 ft
800 / 1500m
200 / 500 ft
< 800m
< 200 ft
Simboli :   Temporali  Nebbia  Neve Forte  Precipitazioni Forti  Vento > 20 kt
SIGMETs :   Varie  Temporali  Ghiacco  Turbolenza  Onda orograficha  Ceneri Vulcaniche







- Altitudine del aeroporto : 32 ft
- Codice IATA : LKZ


EGUL - RAF Lakenheath

ULTIMO METAR :
  • 241756Z AUTO 31009KT 9999 CLR 21/16 A2998 RMK AO2 SLP155 T02050157 10221 20196 55003 $

METARs OBSOLETI :
  • 241656Z 31010KT 9999 SCT055 21/15 A2998 RMK AO2A SLP155 T02060154 $
  • 241556Z 33008KT 9999 SCT055 21/15 A2998 RMK AO2A SLP155 T02140152 $

TAF TAF EGUL
Valido dal 24 a 12 ore il 25 a 18 ore UTC


241203Z 2412/2518 29012KT 9999 FEW050 QNH2996INS
BECMG 2416/2417 VRB06KT 9999 SCT050 QNH2995INS
BECMG 2501/2502 30009KT 9999 FEW020 BKN050 620507 QNH3000INS TX24/2414Z TN08/2504Z
Nessun NOTAM noto per questo aeroporto.



MetMap, La meteo Aeronautica in un colpo d'occhio ! - Copyright ORBIFLY Dicembre 2007 - Disclaimer

ORBIFLY MET'MAP TEAM :

Programmazione e sviluppo : Alexandra Zaïnal
Concezione e sviluppo : Baudouin d'Aumeries
Co-Programmazione e sviluppo : Marc-Olivier Méhu
Supporto tecnico e logistico : Manuel Goepfert
Aiuto per la traduzione : Arnaldo La Scala

Contatto : metmap@orbifly.com




FONTI E CREDITI :

   NOAA